Tracking 31027 objects as of 19-Jul-2025
HD Live streaming from Space Station
objects crossing your sky now

SL-14 DEB

Track SL-14 DEB now!
10-day predictions


NORAD ID: 46465
Int'l Code: 1991-056DA
Perigee: 1,200.3 km
Apogee: 1,245.2 km
Inclination: 82.6 °
Period: 109.8 minutes
Semi major axis: 7593 km
RCS: Unknown
Launch date: August 15, 1991
Source: Commonwealth of Independent States (former USSR) (CIS)
Launch site: PLESETSK MISSILE AND SPACE COMPLEX (PKMTR)

Note: This is SATELLITE DEBRIS
Your satellite tracking list
THORAD DELTA 1 DEB
Track 1 satellite(s)




NASA's NSSDC Master Catalog

Two Line Element Set (TLE):
1 46465U 91056DA  25198.95197173 -.00000394  00000-0 -11349-2 0  9991
2 46465  82.5605  29.6734 0029528  48.3386 312.0254 13.11950130237151
Source of the keplerian elements: AFSPC